www.pogodaiklimat.ru

Погода и климат >> Архив погоды >> Узбекистан >> Ургенч


АРХИВ ПОГОДЫ в Ургенче

Время (UTC), дата Ветер
(напр.,м/с)
 
Видим.   Явления Облачность Т
(С)
Тd
(С)
f
(%)
Тe
(С)
Тes
(С)
Комфортность P
(гПа)
Po
(гПа)
Тmin
(С)
Tmax
(С)
R
(мм)
R24
(мм)
S
(см)
09 12.08 З 6 10 км ясно +29.2 +10.9 32 +30 +36 жарко 1010.4 998.9
12 12.08 З 9 10 км ясно +29.3 +7.8 26 +29 +29 жарко 1009.6 998.1
15 12.08 З 4 10 км ясно +26.1 +8.6 33 +26 +26 жарко 1009.7 998.2 +30.4
18 12.08 Ю 2 4000 м ясно +20.8 +11.0 53 +23 +23 комфорт 1010.0 998.2 +30.4
21 12.08 З 5 10 км ясно +21.0 +9.7 48 +23 +23 комфорт 1009.9 998.1
00 13.08 З 3 10 км ясно +16.4 +10.4 68 +16 +16 1011.2 999.3
03 13.08 СЗ 4 10 км ясно +19.1 +11.7 62 +20 +22 1013.0 1001.1 +14.6
06 13.08 З 6 10 км ясно +23.9 +10.6 43 +25 +31 комфорт 1013.3 1001.7 +14.6
09 13.08 З 9 10 км 8/0
[Ac trans]
+25.1 +8.6 35 +26 +26 жарко 1013.1 1001.5
12 13.08 СЗ 6 10 км 3/0
[Ci fib]
+25.6 +7.0 31 +26 +28 жарко 1012.0 1000.4
15 13.08 З 2 10 км 3/0
[Ci fib]
+23.9 +8.1 36 +24 +24 комфорт 1011.9 1000.3 +26.8
18 13.08 З 2 10 км ясно +20.0 +7.0 43 +21 +21 комфорт 1012.4 1000.6 +26.8
21 13.08 штиль 0 10 км 4/0
[Ac trans]
+16.1 +11.3 73 +16 +16 1011.7 999.8
00 14.08 ЮВ 2 4000 м 8/0
[Ac trans]
+16.0 +12.2 78 +16 +16 1010.8 998.9
03 14.08 Ю 4 4000 м 8/0
[Ac trans]
+20.4 +8.6 47 +22 +23 комфорт 1010.9 999.1 +15.0
06 14.08 СЗ 9 10 км 3/0
[Ac trans]
+23.6 +3.2 26 +23 +24 комфорт 1012.2 1000.5 +15.0
09 14.08 З 8 10 км ясно +24.3 +5.1 29 +24 +27 комфорт 1012.2 1000.6
12 14.08 СЗ 7 10 км 3/0
[Ci fib]
+24.6 +2.7 24 +24 +25 комфорт 1012.1 1000.5 +25.4
15 14.08 С 1 10 км 3/0
[Ci fib]
+20.8 +7.6 42 +23 +23 комфорт 1013.0 1001.2 +25.4
18 14.08 Ю 3 10 км 3/0
[Ci fib]
+18.5 +7.3 48 +19 +19 1013.4 1001.5 +25.4
21 14.08 Ю 2 10 км 3/0
[Ci fib]
+16.5 +7.6 56 +17 +17 1012.8 1000.9
00 15.08 З 4 10 км ясно +17.8 +4.3 41 +18 +18 1012.9 1001.0
03 15.08 З 3 10 км ясно +18.9 +5.8 42 +19 +22 1014.0 1002.1 +15.9
06 15.08 З 5 10 км 3/0
[Ci fib]
+24.7 +8.8 36 +25 +32 комфорт 1014.2 1002.5 +15.9
09 15.08 СЗ 7 10 км 4/0
[Ci fib]
+27.4 +7.4 28 +27 +31 жарко 1013.5 1002.0
12 15.08 СЗ 4 10 км 3/0
[Ac trans]
+27.3 +10.3 35 +28 +31 жарко 1012.8 1001.3
15 15.08 СЗ 4 10 км 3/0
[Ac trans]
+24.4 +12.8 48 +26 +26 жарко 1013.2 1001.6 +28.2
18 15.08 С 2 10 км 3/0
[Ac trans]
+19.2 +14.8 76 +21 +21 комфорт 1013.8 1002.0 +28.2
21 15.08 СВ 3 10 км ясно +16.9 +12.6 76 +17 +17 1014.6 1002.6
00 16.08 СВ 1 10 км ясно +16.0 +12.5 80 +17 +17 1015.1 1003.1 +1.3
03 16.08 СВ 3 10 км ясно +19.0 +11.8 63 +20 +22 1016.3 1004.4 +14.5
06 16.08 СВ 5 10 км ясно +25.0 +9.0 36 +26 +33 жарко 1017.0 1005.3 +14.5
09 16.08 В 3 10 км ясно +27.5 +6.8 27 +27 +40 жарко 1015.9 1004.3
12 16.08 СВ 3 10 км ясно +28.5 +6.7 25 +28 +32 жарко 1014.3 1002.8
15 16.08 С 3 10 км ясно +24.0 +12.1 47 +26 +26 жарко 1014.3 1002.6 +29.2
18 16.08 СЗ 2 10 км ясно +19.4 +11.2 59 +21 +21 комфорт 1014.8 1002.9 +29.2
21 16.08 СЗ 2 10 км ясно +17.6 +9.7 60 +18 +18 1014.3 1002.4
00 17.08 СЗ 1 10 км ясно +17.4 +10.9 66 +18 +18 1013.9 1002.0
03 17.08 С 2 10 км ясно +21.3 +12.3 56 +23 +26 комфорт 1014.2 1002.4 +16.2
06 17.08 СВ 3 10 км ясно +28.5 +10.3 32 +29 +40 жарко 1014.1 1002.6 +16.2
09 17.08 СВ 5 10 км ясно +32.0 +8.4 23 +31 +39 жарко 1012.6 1001.3
12 17.08 СВ 5 10 км ясно +32.3 +10.0 25 +32 +35 жарко 1011.5 1000.2
15 17.08 С 3 10 км ясно +25.4 +13.7 48 +28 +28 жарко 1012.0 1000.5 +32.6
18 17.08 С 1 10 км ясно +20.7 +13.4 63 +24 +24 комфорт 1012.7 1000.9 +32.6
21 17.08 СВ 2 10 км ясно +18.7 +11.0 61 +20 +20 1012.9 1001.0
00 18.08 СВ 2 10 км ясно +17.7 +10.9 64 +18 +18 1013.6 1001.7
03 18.08 СВ 2 10 км ясно +21.6 +11.8 54 +24 +26 комфорт 1014.9 1003.1 +15.8
06 18.08 В 4 10 км ясно +28.7 +10.9 33 +29 +38 жарко 1015.7 1004.2 +15.8
09 18.08 СВ 5 10 км ясно +32.8 +6.2 19 +31 +39 жарко 1015.0 1003.6
12 18.08 С 3 10 км ясно +33.1 +8.0 21 +32 +36 жарко 1014.3 1002.9
15 18.08 С 4 10 км ясно +25.5 +15.1 53 +28 +28 жарко 1014.8 1003.2 +33.8
18 18.08 СЗ 2 10 км ясно +21.1 +13.0 60 +23 +23 комфорт 1015.5 1003.7 +33.8
21 18.08 СВ 4 10 км ясно +20.6 +9.5 49 +22 +22 комфорт 1015.6 1003.7
00 19.08 СВ 3 10 км ясно +19.2 +9.7 54 +20 +20 1016.3 1004.5 +1.7
03 19.08 СВ 4 10 км ясно +22.6 +10 +12 1017.9 1006.1 +18.0
06 19.08 СВ 4 10 км ясно +29.9 +12.0 33 +31 +40 жарко 1017.7 1006.3 +18.0

 

Местоположение метеостанции Ургенч (Хорезмская область, Узбекистан): широта 41.57 долгота 60.57 высота над уровнем моря 101 м.

В архиве по умолчанию представлена погода в Ургенче за последнюю неделю. Архивные данные за месяц целиком и за предыдущие месяцы, начиная с января 2011 года, Вы можете получить, выбрав интересующий диапазон дат из раскрывающегося списка и нажав кнопку "Ввод!".


*Определитесь, кто Вы:
робот инопланетянин человек

Внимание! Время в таблицах - всемирное. Для получения местного времени необходимо прибавить поправку, которая равна 5 ч.

Смотрите также архив погоды в соседних городах и на ближайших метеорологических станциях:

Погода в Хиве (Хорезмская область, Узбекистан) (25 км)
Погода в Гурлене (Хорезмская область, Узбекистан) (35 км)
Погода в Дашогузе (Дашогузский велаят, Туркменистан) (65 км)
Погода в Тюя-Муюне (Лебапский велаят, Туркменистан) (79 км)
Погода в Тахиаташе (Каракалпакстан, Узбекистан) (122 км)
Погода в Нукусе (Каракалпакстан, Узбекистан) (125 км)
Погода в Тахтакупыре (Каракалпакстан, Узбекистан) (128 км)
Погода в Кенеургенче (Дашогузский велаят, Туркменистан) (144 км)
Погода в Шах-Сенеме (Дашогузский велаят, Туркменистан) (154 км)
Погода в Бузаубае (Хорезмская область, Узбекистан) (159 км)

Пояснения к столбцам:

Ветер - указаны скорость ветра в м/с - средняя за 10 мин, порывы в срок и между сроками (в фигурных скобках) и направление, откуда дует ветер: С - северный, СВ - северо-восточный, В - восточный, ЮВ - юго-восточный, Ю - южный, ЮЗ - юго-западный, З - западный, СЗ - северо-западный.
Видимость - горизонтальная дальность видимости в метрах или километрах. При видимости от 1 до 10 км при отсутствии осадков обычно наблюдается дымка, при ухудшении видимости до 1 км и менее - туман. В сухую погоду видимость может ухудшаться дымом, пылью или мглою.
Явления - указаны атмосферные явления, наблюдавшиеся в срок или в последний час перед сроком; фигурными скобками обозначены явления, наблюдавшиеся между сроками (за 1-3 часа до срока); квадратными скобками обозначены град или гололедные отложения с указанием их диаметра в мм.
Облачность - указаны через наклонную черту общая и нижняя облачность в баллах и высота нижней границы облаков в метрах; квадратными скобками обозначены формы облаков: Ci - перистые, Cs - перисто-слоистые, Cc - перисто-кучевые, Ac - высококучевые, As - высокослоистые, Sc - слоисто-кучевые, Ns - слоисто-дождевые, Cu - кучевые, Cb - кучево-дождевые. Подробнее классификацию облаков см. в Атласе облаков (PDF).
T - Температура воздуха - температура, измеренная на высоте 2 м над землей.
Td - Температура точки росы - температура, при понижении до которой содержащийся в воздухе водяной пар достигнет насыщения.
f - Относительная влажность воздуха - влажноcть воздуха, измеренная на высоте 2 м над землей.
Te - Эффективная температура - температура, которую ощущает одетый по сезону человек в тени. Характеристика душности погоды. При расчете учитывается влияние влажности воздуха и скорости ветра на теплоощущения человека.
Tes - Эффективная температура на солнце - температура, которую ощущает человек, с поправкой на солнечный нагрев. Характеристика знойности погоды. Зависит от высоты солнца над горизонтом, облачности и скорости ветра. Ночью, в пасмурную погоду, а также при ветре 12 м/с и более поправка равна нулю.
P - Атмосферное давление - приведенное к уровню моря атмосферное давление.
Po - Атмосферное давление - измеренное на уровне метеостанции атмосферное давление.
Tmin - Минимальная температура - минимум температуры воздуха на высоте 2 м над землей.
Tmax - Максимальная температура - максимум температуры воздуха на высоте 2 м над землей.
R - Количество осадков - Количество выпавших осадков за период времени, мм. При наведении курсора мыши на число - период времени, за который выпало указанное количество осадков.
R24 - Количество осадков - Количество выпавших осадков за 24 часа, мм.
S - Снежный покров - Высота снежного покрова, см. При наведении курсора мыши на число - состояние снежного покрова и степень покрытия местности в баллах.